Home   Weather   San Marino   Past weeks
Flag for San Marino

Past Weather in San Marino, San Marino — Yesterday and Last 2 Weeks

Now
57 °F

Sunny.


Feels Like: 54 °F
Forecast: 52 / 39 °F
Wind: 13 mph from West

Location: Rimini Airport

Current Time: Mar 22, 2019 at 11:23:22 am

Latest Report: Mar 22, 2019 at 10:50 am


Visibility: 10 mi

Pressure: 30.42 "Hg (28.10 "Hg at 666m altitude)

Humidity: 39%

Dew Point: 32 °F

Location of San MarinoLocation

Past Weather in San Marino — Graph

°F

San Marino Temperature Yesterday

Maximum temperature yesterday: 59 °F (at 1:50 pm)
Minimum temperature yesterday: 39 °F (at 3:20 am)
Average temperature yesterday: 47 °F

High & Low Weather Summary for the Past Weeks

 TemperatureHumidityPressure
High73 °F (Mar 7, 12:50 pm)94% (Mar 18, 2:20 pm)30.48 "Hg (Mar 18, 2:20 pm)
Low32 °F (Mar 13, 4:20 am)19% (Mar 12, 11:20 am)29.74 "Hg (Mar 15, 12:20 am)
Average52 °F61%30.05 "Hg
* Reported Mar 7 10:20 am — Mar 22 10:20 am, San Marino. Weather by CustomWeather, © 2019

Note: Actual official high and low records may vary slightly from our data, if they occured in-between our weather recording intervals... More about our weather records

Advertising

San Marino Weather History for the Previous 24 Hours

Scroll right to see more
 ConditionsComfort  
Time TempWeatherWind HumidityBarometerVisibility
10:20 am
Fri, Mar 22
55 °FSunny.14 mph44%30.42 "Hg10 mi
9:50 am55 °FSunny.15 mph44%30.42 "Hg10 mi
9:20 am54 °FSunny.16 mph44%30.42 "Hg10 mi
8:50 am52 °FSunny.14 mph47%30.42 "Hg10 mi
8:20 am52 °FSunny.13 mph47%30.42 "Hg10 mi
7:50 am50 °FSunny.10 mph50%30.42 "Hg10 mi
7:20 am45 °FSunny.5 mph66%30.42 "Hg10 mi
6:50 am41 °FQuite cool.2 mph70%30.42 "HgN/A
6:20 am43 °FQuite cool.8 mph61%30.42 "HgN/A
5:50 am39 °FChilly.5 mph70%30.42 "HgN/A
5:20 am41 °FQuite cool.6 mph66%30.42 "HgN/A
4:50 am43 °FQuite cool.5 mph61%30.39 "HgN/A
4:20 am43 °FQuite cool.5 mph61%30.42 "HgN/A
3:50 am41 °FQuite cool.3 mph66%30.42 "HgN/A
3:20 am43 °FQuite cool.7 mph61%30.42 "HgN/A
2:50 am43 °FQuite cool.6 mph61%30.42 "HgN/A
2:20 am43 °FQuite cool.6 mph61%30.42 "HgN/A
1:50 am45 °FQuite cool.6 mph57%30.42 "HgN/A
1:20 am41 °FQuite cool.3 mph66%30.42 "HgN/A
12:50 am41 °FQuite cool.3 mph70%30.42 "HgN/A
12:20 am41 °FPassing clouds.3 mph70%30.42 "HgN/A
11:50 pm
Thu, Mar 21
39 °FChilly.1 mph75%30.42 "HgN/A
11:20 pm41 °FQuite cool.2 mph70%30.42 "HgN/A
10:20 pm41 °FClear.5 mph70%30.42 "Hg10 mi
9:50 pm43 °FClear.3 mph71%30.42 "Hg10 mi
9:20 pm43 °FClear.2 mph71%30.42 "Hg10 mi
8:50 pm45 °FClear.5 mph66%30.42 "Hg10 mi
8:20 pm45 °FClear.6 mph66%30.42 "Hg10 mi
7:50 pm46 °FClear.3 mph62%30.42 "Hg10 mi
7:20 pm48 °FClear.1 mph58%30.42 "Hg10 mi
6:50 pm50 °FClear.2 mph54%30.42 "Hg10 mi
6:20 pm50 °FSunny.3 mph58%30.42 "Hg10 mi
5:50 pm54 °FSunny.3 mph47%30.42 "Hg10 mi
5:20 pm54 °FSunny.3 mph41%30.42 "Hg10 mi
4:50 pm55 °FPassing clouds.3 mph41%30.42 "HgN/A
4:20 pm55 °FPassing clouds.6 mph44%30.42 "HgN/A
3:50 pm55 °FPassing clouds.5 mph44%30.42 "HgN/A
3:20 pm55 °FSunny.5 mph44%30.45 "Hg10 mi
2:50 pm55 °FPassing clouds.5 mph41%30.45 "HgN/A
2:20 pm55 °FPassing clouds.3 mph41%30.45 "HgN/A
1:50 pm59 °FSunny.3 mph36%30.45 "Hg10 mi
12:50 pm54 °FPassing clouds.9 mph47%30.48 "HgN/A
12:20 pm54 °FPassing clouds.10 mph47%30.48 "HgN/A
11:50 am54 °FPassing clouds.10 mph47%30.48 "HgN/A
11:20 am54 °FPassing clouds.9 mph51%30.48 "HgN/A
Weather by CustomWeather, © 2019

See weather overview